Location: Hilde
(52.9479°N, 6.4449°E)
Time: 19:29:24
(UTC+00:00)

Lacrosse 4 Rocket - Pass Details

Date: 15 May 2026
Orbit: 504 x 567 km, 68.0° (Epoch: 7 June)

Event Time Altitude Azimuth Distance (km) Brightness Sun altitude
Exits shadow 22:42:31 15° 106° (ESE) 1,485 3.2 -17.3°
Drops below altitude 10° 22:44:48 10° 71° (ENE) 1,813 4.0 -17.3°
Sets 22:47:45 0° 49° (NE) 2,727 5.3 -17.4°
